Time,TemperatureF,DewpointF,PressureIn,WindDirection,WindDirectionDegrees,WindSpeedMPH,WindSpeedGustMPH,Humidity,HourlyPrecipIn,Conditions,Clouds,dailyrainin,SoftwareType,DateUTC
2013-05-10 00:12:00,55.2,46.0,29.92,NE,51,0.0,2.0,72,0.00,,,0.00,weatherlink.com 1.10,2013-05-10 06:12:00,
2013-05-10 00:28:00,56.2,46.0,29.93,NE,51,0.0,0.0,68,0.00,,,0.00,weatherlink.com 1.10,2013-05-10 06:28:00,
2013-05-10 00:43:00,57.3,47.0,29.93,NE,55,0.0,2.0,68,0.00,,,0.00,weatherlink.com 1.10,2013-05-10 06:43:00,
2013-05-10 00:58:00,55.1,47.0,29.93,NE,55,0.0,0.0,73,0.00,,,0.00,weatherlink.com 1.10,2013-05-10 06:58:00,
2013-05-10 01:13:00,53.6,46.0,29.94,NE,55,0.0,1.0,74,0.00,,,0.00,weatherlink.com 1.10,2013-05-10 07:13:00,
2013-05-10 01:28:00,55.3,45.0,29.94,ENE,60,0.0,2.0,68,0.00,,,0.00,weatherlink.com 1.10,2013-05-10 07:28:00,
2013-05-10 01:43:00,53.1,44.0,29.95,ENE,60,0.0,1.0,72,0.00,,,0.00,weatherlink.com 1.10,2013-05-10 07:43:00,
2013-05-10 01:58:00,51.4,45.0,29.95,ENE,60,0.0,0.0,78,0.00,,,0.00,weatherlink.com 1.10,2013-05-10 07:58:00,
2013-05-10 02:13:00,51.0,44.0,29.96,ENE,60,2.0,3.0,76,0.00,,,0.00,weatherlink.com 1.10,2013-05-10 08:13:00,
2013-05-10 02:28:00,50.6,44.0,29.96,ENE,76,0.0,3.0,77,0.00,,,0.00,weatherlink.com 1.10,2013-05-10 08:28:00,
2013-05-10 02:43:00,49.7,43.0,29.96,ENE,76,0.0,2.0,79,0.00,,,0.00,weatherlink.com 1.10,2013-05-10 08:43:00,
2013-05-10 02:58:00,48.9,43.0,29.97,ENE,76,0.0,1.0,81,0.00,,,0.00,weatherlink.com 1.10,2013-05-10 08:58:00,
2013-05-10 03:13:00,48.1,44.0,29.97,ENE,76,0.0,0.0,84,0.00,,,0.00,weatherlink.com 1.10,2013-05-10 09:13:00,
2013-05-10 03:28:00,47.2,44.0,29.98,ENE,76,0.0,0.0,87,0.00,,,0.00,weatherlink.com 1.10,2013-05-10 09:28:00,
2013-05-10 03:43:00,46.0,44.0,29.98,ENE,76,2.0,2.0,91,0.00,,,0.00,weatherlink.com 1.10,2013-05-10 09:43:00,
2013-05-10 03:58:00,46.7,43.0,29.99,ENE,76,0.0,0.0,85,0.00,,,0.00,weatherlink.com 1.10,2013-05-10 09:58:00,
2013-05-10 04:13:00,46.6,42.0,29.99,NNE,26,0.0,2.0,85,0.00,,,0.00,weatherlink.com 1.10,2013-05-10 10:13:00,
2013-05-10 04:28:00,44.9,42.0,30.00,NE,51,2.0,2.0,89,0.00,,,0.00,weatherlink.com 1.10,2013-05-10 10:28:00,
2013-05-10 04:43:00,44.6,43.0,30.00,NE,51,2.0,2.0,93,0.00,,,0.00,weatherlink.com 1.10,2013-05-10 10:43:00,
2013-05-10 04:58:00,46.0,42.0,30.00,ENE,61,0.0,2.0,87,0.00,,,0.00,weatherlink.com 1.10,2013-05-10 10:58:00,
2013-05-10 05:13:00,44.7,41.0,30.01,ENE,61,0.0,0.0,87,0.00,,,0.00,weatherlink.com 1.10,2013-05-10 11:13:00,
2013-05-10 05:28:00,43.5,41.0,30.01,ENE,61,0.0,0.0,90,0.00,,,0.00,weatherlink.com 1.10,2013-05-10 11:28:00,
2013-05-10 05:43:00,43.0,41.0,30.01,ENE,61,0.0,0.0,93,0.00,,,0.00,weatherlink.com 1.10,2013-05-10 11:43:00,
2013-05-10 05:59:00,42.8,41.0,30.02,ENE,61,0.0,0.0,92,0.00,,,0.00,weatherlink.com 1.10,2013-05-10 11:59:00,
2013-05-10 06:14:00,42.0,40.0,30.02,ENE,61,0.0,0.0,93,0.00,,,0.00,weatherlink.com 1.10,2013-05-10 12:14:00,
2013-05-10 06:29:00,41.9,40.0,30.03,ENE,61,0.0,0.0,92,0.00,,,0.00,weatherlink.com 1.10,2013-05-10 12:29:00,
2013-05-10 06:44:00,41.6,40.0,30.03,ENE,61,0.0,0.0,93,0.00,,,0.00,weatherlink.com 1.10,2013-05-10 12:44:00,
2013-05-10 06:59:00,41.2,40.0,30.04,ENE,61,0.0,0.0,94,0.00,,,0.00,weatherlink.com 1.10,2013-05-10 12:59:00,
2013-05-10 07:14:00,41.5,40.0,30.05,ENE,61,0.0,0.0,94,0.00,,,0.00,weatherlink.com 1.10,2013-05-10 13:14:00,
2013-05-10 07:29:00,42.7,41.0,30.05,ENE,61,0.0,0.0,95,0.00,,,0.00,weatherlink.com 1.10,2013-05-10 13:29:00,
2013-05-10 07:44:00,44.5,43.0,30.06,ENE,61,0.0,0.0,94,0.00,,,0.00,weatherlink.com 1.10,2013-05-10 13:44:00,
2013-05-10 07:59:00,46.9,44.0,30.06,ENE,61,0.0,0.0,89,0.00,,,0.00,weatherlink.com 1.10,2013-05-10 13:59:00,
2013-05-10 08:14:00,49.0,45.0,30.07,ENE,61,0.0,0.0,87,0.00,,,0.00,weatherlink.com 1.10,2013-05-10 14:14:00,
2013-05-10 08:29:00,50.8,45.0,30.07,NNE,14,0.0,1.0,81,0.00,,,0.00,weatherlink.com 1.10,2013-05-10 14:29:00,
2013-05-10 08:44:00,51.9,45.0,30.07,North,5,0.0,3.0,77,0.00,,,0.00,weatherlink.com 1.10,2013-05-10 14:44:00,
2013-05-10 08:59:00,53.2,45.0,30.07,NNW,338,3.0,5.0,74,0.00,,,0.00,weatherlink.com 1.10,2013-05-10 14:59:00,
2013-05-10 09:14:00,54.0,46.0,30.07,NW,304,3.0,4.0,73,0.00,,,0.00,weatherlink.com 1.10,2013-05-10 15:14:00,
2013-05-10 09:29:00,56.3,47.0,30.07,West,267,1.0,2.0,71,0.00,,,0.00,weatherlink.com 1.10,2013-05-10 15:29:00,
2013-05-10 09:44:00,58.0,46.0,30.07,NNE,27,0.0,3.0,65,0.00,,,0.00,weatherlink.com 1.10,2013-05-10 15:44:00,
2013-05-10 09:59:00,59.0,46.0,30.07,North,355,4.0,6.0,63,0.00,,,0.00,weatherlink.com 1.10,2013-05-10 15:59:00,
2013-05-10 10:15:00,60.3,45.0,30.07,NNE,17,4.0,7.0,57,0.00,,,0.00,weatherlink.com 1.10,2013-05-10 16:15:00,
2013-05-10 10:30:00,62.0,44.0,30.06,NE,49,2.0,7.0,53,0.00,,,0.00,weatherlink.com 1.10,2013-05-10 16:30:00,
2013-05-10 10:45:00,63.9,45.0,30.06,NW,319,6.0,10.0,51,0.00,,,0.00,weatherlink.com 1.10,2013-05-10 16:45:00,
2013-05-10 11:00:00,65.4,46.0,30.06,NW,319,10.0,11.0,50,0.00,,,0.00,weatherlink.com 1.10,2013-05-10 17:00:00,
2013-05-10 11:15:00,67.3,46.0,30.05,NW,323,12.0,14.0,46,0.00,,,0.00,weatherlink.com 1.10,2013-05-10 17:15:00,
2013-05-10 11:30:00,70.1,43.0,30.05,NE,39,7.0,11.0,38,0.00,,,0.00,weatherlink.com 1.10,2013-05-10 17:30:00,
2013-05-10 11:45:00,72.4,38.0,30.05,NE,34,9.0,16.0,29,0.00,,,0.00,weatherlink.com 1.10,2013-05-10 17:45:00,
2013-05-10 12:00:00,73.3,39.0,30.04,NE,46,11.0,16.0,29,0.00,,,0.00,weatherlink.com 1.10,2013-05-10 18:00:00,
2013-05-10 12:15:00,73.9,38.0,30.04,ENE,68,13.0,15.0,27,0.00,,,0.00,weatherlink.com 1.10,2013-05-10 18:15:00,
2013-05-10 12:30:00,74.5,37.0,30.04,NNE,27,8.0,14.0,26,0.00,,,0.00,weatherlink.com 1.10,2013-05-10 18:30:00,
2013-05-10 12:45:00,74.6,37.0,30.04,NE,48,5.0,16.0,26,0.00,,,0.00,weatherlink.com 1.10,2013-05-10 18:45:00,
2013-05-10 13:00:00,74.7,38.0,30.03,North,355,3.0,12.0,26,0.00,,,0.00,weatherlink.com 1.10,2013-05-10 19:00:00,
2013-05-10 13:15:00,75.3,37.0,30.02,NE,46,6.0,13.0,25,0.00,,,0.00,weatherlink.com 1.10,2013-05-10 19:15:00,
2013-05-10 13:30:00,75.7,37.0,30.02,NNE,20,9.0,12.0,25,0.00,,,0.00,weatherlink.com 1.10,2013-05-10 19:30:00,
2013-05-10 13:45:00,76.3,37.0,30.01,North,351,4.0,12.0,24,0.00,,,0.00,weatherlink.com 1.10,2013-05-10 19:45:00,
2013-05-10 14:00:00,76.7,37.0,30.01,NNW,338,2.0,12.0,24,0.00,,,0.00,weatherlink.com 1.10,2013-05-10 20:00:00,
2013-05-10 14:15:00,77.0,39.0,30.00,NW,325,8.0,11.0,25,0.00,,,0.00,weatherlink.com 1.10,2013-05-10 20:15:00,
2013-05-10 14:30:00,77.6,40.0,29.99,WNW,291,9.0,9.0,26,0.00,,,0.00,weatherlink.com 1.10,2013-05-10 20:30:00,
2013-05-10 14:45:00,77.9,38.0,29.99,WNW,298,3.0,11.0,24,0.00,,,0.00,weatherlink.com 1.10,2013-05-10 20:45:00,
2013-05-10 15:00:00,77.8,38.0,29.98,NW,325,9.0,11.0,24,0.00,,,0.00,weatherlink.com 1.10,2013-05-10 21:00:00,
2013-05-10 15:15:00,78.2,39.0,29.98,NNW,331,10.0,11.0,24,0.00,,,0.00,weatherlink.com 1.10,2013-05-10 21:15:00,
2013-05-10 15:31:00,77.7,38.0,29.98,NNW,346,4.0,9.0,24,0.00,,,0.00,weatherlink.com 1.10,2013-05-10 21:31:00,
2013-05-10 15:46:00,78.8,37.0,29.97,NW,319,5.0,10.0,22,0.00,,,0.00,weatherlink.com 1.10,2013-05-10 21:46:00,
2013-05-10 16:01:00,79.6,38.0,29.97,NW,317,8.0,11.0,22,0.00,,,0.00,weatherlink.com 1.10,2013-05-10 22:01:00,
2013-05-10 16:31:00,80.0,38.0,29.96,NW,309,8.0,10.0,22,0.00,,,0.00,weatherlink.com 1.10,2013-05-10 22:31:00,
2013-05-10 16:46:00,80.3,37.0,29.95,NW,324,9.0,11.0,21,0.00,,,0.00,weatherlink.com 1.10,2013-05-10 22:46:00,
2013-05-10 17:01:00,80.9,36.0,29.95,West,263,6.0,10.0,20,0.00,,,0.00,weatherlink.com 1.10,2013-05-10 23:01:00,
2013-05-10 17:16:00,80.8,36.0,29.95,NW,319,3.0,9.0,20,0.00,,,0.00,weatherlink.com 1.10,2013-05-10 23:16:00,
2013-05-10 17:31:00,80.0,38.0,29.95,NW,320,4.0,9.0,22,0.00,,,0.00,weatherlink.com 1.10,2013-05-10 23:31:00,
2013-05-10 17:46:00,80.9,35.0,29.95,North,355,8.0,10.0,19,0.00,,,0.00,weatherlink.com 1.10,2013-05-10 23:46:00,
2013-05-10 18:01:00,80.5,35.0,29.95,West,271,4.0,7.0,19,0.00,,,0.00,weatherlink.com 1.10,2013-05-11 00:01:00,
2013-05-10 18:16:00,80.2,36.0,29.94,West,275,2.0,7.0,20,0.00,,,0.00,weatherlink.com 1.10,2013-05-11 00:16:00,
2013-05-10 18:31:00,78.6,38.0,29.94,WNW,293,0.0,4.0,23,0.00,,,0.00,weatherlink.com 1.10,2013-05-11 00:31:00,
2013-05-10 18:46:00,76.8,36.0,29.94,WNW,292,0.0,2.0,23,0.00,,,0.00,weatherlink.com 1.10,2013-05-11 00:46:00,
2013-05-10 19:01:00,75.1,39.0,29.95,WNW,292,0.0,1.0,27,0.00,,,0.00,weatherlink.com 1.10,2013-05-11 01:01:00,
2013-05-10 19:16:00,74.0,37.0,29.95,West,265,4.0,14.0,26,0.00,,,0.00,weatherlink.com 1.10,2013-05-11 01:16:00,
2013-05-10 19:31:00,73.8,36.0,29.95,NW,306,1.0,9.0,25,0.00,,,0.00,weatherlink.com 1.10,2013-05-11 01:31:00,
2013-05-10 19:46:00,73.4,35.0,29.96,NW,315,9.0,11.0,25,0.00,,,0.00,weatherlink.com 1.10,2013-05-11 01:46:00,
2013-05-10 20:01:00,73.0,39.0,29.97,NNW,334,5.0,13.0,29,0.00,,,0.00,weatherlink.com 1.10,2013-05-11 02:01:00,
2013-05-10 20:16:00,73.0,36.0,29.98,NNE,24,4.0,31.0,26,0.00,,,0.00,weatherlink.com 1.10,2013-05-11 02:16:00,
2013-05-10 20:31:00,71.7,40.0,29.99,North,5,9.0,18.0,32,0.00,,,0.00,weatherlink.com 1.10,2013-05-11 02:31:00,
2013-05-10 20:46:00,69.2,40.0,29.98,NE,55,9.0,17.0,35,0.00,,,0.00,weatherlink.com 1.10,2013-05-11 02:46:00,
2013-05-10 21:01:00,68.2,40.0,29.98,NE,49,10.0,16.0,36,0.00,,,0.00,weatherlink.com 1.10,2013-05-11 03:01:00,
2013-05-10 21:16:00,67.7,39.0,29.98,NE,51,4.0,12.0,35,0.00,,,0.00,weatherlink.com 1.10,2013-05-11 03:16:00,
2013-05-10 21:31:00,66.3,40.0,29.99,NNW,333,0.0,4.0,39,0.00,,,0.00,weatherlink.com 1.10,2013-05-11 03:31:00,
2013-05-10 21:46:00,65.6,41.0,30.00,ENE,60,0.0,4.0,40,0.00,,,0.00,weatherlink.com 1.10,2013-05-11 03:46:00,
2013-05-10 22:01:00,63.5,40.0,30.00,ENE,64,1.0,2.0,43,0.00,,,0.00,weatherlink.com 1.10,2013-05-11 04:01:00,
2013-05-10 22:16:00,62.8,40.0,30.01,East,79,1.0,5.0,43,0.00,,,0.00,weatherlink.com 1.10,2013-05-11 04:16:00,
2013-05-10 22:31:00,61.8,40.0,30.01,East,79,0.0,2.0,45,0.00,,,0.00,weatherlink.com 1.10,2013-05-11 04:31:00,
2013-05-10 22:46:00,60.7,40.0,30.01,NE,51,4.0,6.0,47,0.00,,,0.00,weatherlink.com 1.10,2013-05-11 04:46:00,
2013-05-10 23:01:00,61.3,40.0,30.02,NE,50,4.0,7.0,45,0.00,,,0.00,weatherlink.com 1.10,2013-05-11 05:01:00,
2013-05-10 23:16:00,61.7,41.0,30.02,NNE,24,5.0,9.0,47,0.00,,,0.00,weatherlink.com 1.10,2013-05-11 05:16:00,
2013-05-10 23:31:00,60.7,41.0,30.01,NNE,16,5.0,10.0,49,0.00,,,0.00,weatherlink.com 1.10,2013-05-11 05:31:00,
2013-05-10 23:46:00,59.6,40.0,30.01,NNE,26,7.0,8.0,49,0.00,,,0.00,weatherlink.com 1.10,2013-05-11 05:46:00,